Aeroporto :
LOGIN :

Iscrizione | Disclaimer

   EN    FR    IT 

 










Sommario :    VFR   VFR Marginale   IFR   IFR Intensivo   IFR Molto Intensivo
Visibilità : 
Base nubi : 
>= 8 km
>= 3000ft
5 / 8 km
1000 / 3000 ft
1500m / 5 km
500 / 1000 ft
800 / 1500m
200 / 500 ft
< 800m
< 200 ft
Simboli :   Temporali  Nebbia  Neve Forte  Precipitazioni Forti  Vento > 20 kt
SIGMETs :   Varie  Temporali  Ghiacco  Turbolenza  Onda orograficha  Ceneri Vulcaniche






- Altitudine del aeroporto : 1306 ft
- Codice IATA : ACH


LSZR - Alten Rhein

ULTIMO METAR :
  • 290750Z 12003KT 100V170 9999 -RA OVC040 10/09 Q1020 NOSIG RMK C

METARs OBSOLETI :
  • 290720Z 12003KT 100V170 9999 -RA OVC040 10/09 Q1020 NOSIG RMK C
  • 290650Z VRB02KT 9999 -RA SCT040 OVC055 10/09 Q1020 NOSIG RMK B
  • 290620Z VRB02KT 9999 -RA SCT040 OVC055 11/08 Q1020 NOSIG RMK B
  • 290550Z 24003KT 210V280 9999 -RA SCT040 OVC060 11/08 Q1018 NOSIG RMK A
  • 290520Z 24003KT 210V280 9999 -RA SCT040 OVC060 11/08 Q1018 NOSIG RMK A

TAF TAF LSZR
Valido dal 29 a 06 ore il 29 a 15 ore UTC


290525Z 2906/2915 24005KT 9999 BKN055
TEMPO 2906/2909 RA
ATIS : +41 71 858 51 66



MetMap, La meteo Aeronautica in un colpo d'occhio ! - Copyright ORBIFLY Dicembre 2007 - Disclaimer

ORBIFLY MET'MAP TEAM :

Programmazione e sviluppo : Alexandra Zaïnal
Concezione : Baudouin d'Aumeries
Aiuto per la programmazione : Marc-Olivier Méhu
Supporto tecnico e logistico : Manuel Goepfert
Aiuto per la traduzione : Arnaldo La Scala

Contatto : metmap@orbifly.com




FONTI E CREDITI :

   NOAA